Regional Weather Roundup
Issued by NWS

Home | Current Version | Previous Version | Text Only | Print | Product List | Glossary Off
Versions: 1 2 3 4 5 6 7 8 9 10 11 12 13 14 15 16 17 18 19 20 21 22 23 24 25 26 27 28 29 30 31 32 33 34 35 36 37 38 39 40 41 42 43 44 45 46 47 48 49 50

000
ASUS45 KPSR 271910
RWRAZ

ARIZONA REGIONAL HOURLY WEATHER ROUNDUP
NATIONAL WEATHER SERVICE PHOENIX AZ
1200 PM MST FRI FEB 27 2015

NOTE: FAIR INDICATES FEW OR NO CLOUDS BELOW 12,000 FEET WITH NO
SIGNIFICANT WEATHER AND/OR OBSTRUCTIONS TO VISIBILITY.

AZZ001>003-036-272000-
NORTHWEST ARIZONA

CITY           SKY/WX    TMP DP  RH WIND       PRES   REMARKS
BULLHEAD CITY  SUNNY     66  27  22 N18G24    29.73F
KINGMAN        MOSUNNY   54  27  35 CALM      29.77F
$$

AZZ004>008-015-016-018-272000-
NORTH CENTRAL ARIZONA

CITY           SKY/WX    TMP DP  RH WIND       PRES   REMARKS
GRAND CANYON   CLOUDY    35  29  78 NE3       29.82F
PRESCOTT       CLOUDY    47  26  44 NE8       29.80F
FLAGSTAFF      CLOUDY    38  22  52 S10       29.82F WCI  31
PAYSON         PTSUNNY   52  25  35 VRB7      29.83F
PAGE           LGT RAIN  40  33  76 E7        29.83F
$$

AZZ009>014-017-272000-
NORTHEAST ARIZONA

CITY           SKY/WX    TMP DP  RH WIND       PRES   REMARKS
WINSLOW        CLOUDY    45  28  51 CALM      29.83S
SAINT JOHNS    CLOUDY    51  19  28 SW14G24   29.79F
WINDOW ROCK    LGT SNOW  34  30  85 S8        29.84F VSB 3/4 WCI  27
SHOW LOW       PTSUNNY   45  19  36 S18G29    29.84F
$$

AZZ023-272000-
GREATER PHOENIX AREA

CITY           SKY/WX    TMP DP  RH WIND       PRES   REMARKS
PHOENIX        MOSUNNY   71  29  21 S10       29.73F
BUCKEYE        SUNNY     66  27  22 CALM      29.75F
GLENDALE       MOSUNNY   66  32  28 CALM      29.76F
LUKE AFB       SUNNY     67  31  26 E3        29.73F
DEER VALLEY    SUNNY     68  25  19 SE6       29.74F
SCOTTSDALE     SUNNY     69  25  19 VRB5      29.75F
MESA-FALCON    MOSUNNY   70  28  21 S8        29.74F
MESA-GATEWAY   MOSUNNY   70  28  21 S12       29.76F
CHANDLER       MOSUNNY   72  28  20 S15       29.75F
$$

AZZ027-028-272000-
SOUTHWEST MARICOPA COUNTY AND PINAL COUNTY

CITY           SKY/WX    TMP DP  RH WIND       PRES   REMARKS
CASA GRANDE    SUNNY     70  28  21 S10       29.76F
GILA BEND      SUNNY     74  30  19 W10       29.73F
$$

AZZ503-504-507>509-272000-
SOUTHEAST ARIZONA

CITY           SKY/WX    TMP DP  RH WIND       PRES   REMARKS
TUCSON         SUNNY     69  29  22 SW9G17    29.81F
DAVIS-MONTHAN  SUNNY     69  30  23 S12       29.79F
RYAN FIELD       N/A     72  32  23 S13G21    29.80F
NOGALES        SUNNY     67  23  19 S14G21    29.85F
SIERRA VISTA   MOSUNNY   64  16  15 SW22G32   29.85F
DOUGLAS        SUNNY     65  22  19 S20G29    29.86F
SAFFORD        SUNNY     58  27  30 SE12G18   29.84F
$$

AZZ020-021-025-026-031-272000-
SOUTHWEST ARIZONA

CITY           SKY/WX    TMP DP  RH WIND       PRES   REMARKS
YUMA           MOSUNNY   73  43  33 W8        29.75S
$$

CAZ031-033-041-043-047-048-061-272000-
SOUTHERN CALIFORNIA

CITY           SKY/WX    TMP DP  RH WIND       PRES   REMARKS
DOWNTOWN L.A.  PTSUNNY   66  51  58 E6        29.84F
L.A. AIRPORT   PTSUNNY   62  50  64 E6        29.85F
SAN DIEGO      PTSUNNY   65  50  58 S14       29.89R
BURBANK        CLOUDY    61  46  59 S3        29.84F
ONTARIO        PTSUNNY   58  45  62 CALM      29.86F
RIVERSIDE      PTSUNNY   62  45  53 SW6       29.86S
PALM SPRINGS   SUNNY     71  41  33 NW13G22   29.75S
EL CENTRO NAS  MOSUNNY   74  34  23 W8        29.73F
IMPERIAL       SUNNY     73  35  25 NW8       29.73F
BLYTHE         SUNNY     70  32  24 NE3       29.74S
NEEDLES        SUNNY     68  27  21 N7        29.74F
$$

NVZ020-UTZ003-272000-
SOUTHERN NEVADA-UTAH

CITY           SKY/WX    TMP DP  RH WIND       PRES   REMARKS
LAS VEGAS      MOSUNNY   59  21  23 CALM      29.73F
SALT LAKE CITY PTSUNNY   41  31  67 VRB7      29.81F
$$

NMZ009-TXZ055-272000-
NEW MEXICO-WEST TEXAS

CITY           SKY/WX    TMP DP  RH WIND       PRES   REMARKS
ALBUQUERQUE    CLOUDY    27  20  75 E10       29.99S WCI  17
EL PASO        PTSUNNY   38  24  57 E13       30.03F WCI  30
$$


........................KEY........................
SKY/WX - SKY CONDITION/WEATHER
TMP    - TEMPERATURE IN FAHRENHEIT
DP     - DEW POINT IN FAHRENHEIT
RH     - RELATIVE HUMIDITY IN PERCENT
WIND   - DIRECTION AND SPEED IN MILES PER HOUR (MPH)
VRB    - VARIABLE WIND DIRECTION
PRES   - MEAN SEA LEVEL PRESSURE IN INCHES OF MERCURY
         F - FALLING PRESSURE   R - RISING PRESSURE
         S - STEADY PRESSURE
VSB    - VISIBILITY IN MILES
HX     - HEAT INDEX IN FAHRENHEIT
WCI    - WIND CHILL INDEX IN FAHRENHEIT
TC     - TEMPERATURE IN CELSIUS WHICH IS ALSO KNOWN AS
         TEMPERATURE IN CENTIGRADE
AFB    - AIR FORCE BASE
         LUKE AFB IS LUKE AIR FORCE BASE
         DAVIS-MONTHAN IS DAVIS-MONTHAN AIR FORCE BASE
NAS    - NAVAL AIR STATION
         EL CENTRO NAS IS EL CENTRO NAVAL AIR STATION
N/A    - NOT AVAILABLE


USA.gov is the U.S. government's official web portal to all federal, state and local government web resources and services.